{"data":{"norad_id":64721,"epoch":"2026-09-20T09:30:34.545888Z","epoch_age_seconds":154017,"freshness":"FRESH","line1":"1 64721U 25142AB  26263.39623317  .00008336  00000+0  29401-3 0  9995","line2":"2 64721  70.0020 181.2271 0002611 277.5138  82.5740 15.29592863 68680","mean_motion":15.29592863,"eccentricity":0.0002611,"inclination_deg":70.002,"raan_deg":181.2271,"arg_perigee_deg":277.5138,"mean_anomaly_deg":82.574,"bstar":0.00029401,"rev_number":6868,"period_min":94.142698677066,"perigee_km":475.23858695854,"apogee_km":478.81835436732,"semimajor_km":6855.1654706629,"source":"CELESTRAK","updated_at":"2026-09-21T09:00:35.408310Z"}}